Volver al catálogo

ONEWEB-0269

ActivoComunicacionesPO
NORAD 48987·PAYLOAD·🇬🇧 United Kingdom

Lanzado Jul 1, 2021 desde Vostochny Cosmodrome

Loading…

Próximos Pases (próximas 24 horas)

TLE

ActualizadoSource: CelesTrak SupGP

Época: Sep 14, 2026, 13:26 UTC

1 48987C 21060W   26257.55990000 -.00001862  00000+0 -48756-2 0  2572
2 48987  87.9153 211.0329 0002038  88.0598  13.3109 13.16598732    13

Sigue ONEWEB-0269 en tiempo real con AllMySat

Download on the App Store